Погода в Сухане

Погода в Сухане : погода сейчас, прогноз погоды и архив. Всё, что Вы хотите узнать о погоде в Сухане!

Поиск расширенной информации на нашем сайте:

Другие новости

Новости СМИ2

Главная страница сайта

Новости сайта

03.07.2017

Напоминаем, что на нашем специализированном сайте Метеоцентр.Азия вы можете получить высокодетализированные автоматические прогнозы погоды по пунктам России, СНГ и мира в авиационном формате (включающие направление и скорость ветра, видимость, явления погоды, количество и форму облачности, нижнюю и верхнюю границу облачности).

Рекомендуем: Читайте продажа моторных яхт услуги.

Погода в Сухане - сегодня

Время (UTC), дата Ветер
(°,м/с) 
Видим.   Явления Облачность Т
(°С)
Тd
(°С)
f(%) Тe
(°С)
Pmin
(гПа)
dP
(гПа)
Po
(мм)
O2
(г/м3)
Тmin Tmax R s Состояние
почвы
21 10.12.17 тихо ()   20000 м    ясно 
-46.1 -49.2 71 -46  1042.4  0.8  773  377           
00 11.12.17 тихо ()   20000 м    ясно 
-46.2 -49.7 68 -46  1042.3  -0.1  773  377  -46.2      24  равномерный
сухой снег
100% 
03 11.12.17 тихо ()   20000 м    3/0 верхняя 
[Cs]
-46.5 -50.1 67 -47  1042.4  0.1  773  378  -46.6         
06 11.12.17 тихо ()   20000 м    3/0 верхняя 
[Cs]
-46.6 -50.1 68 -47  1042.3  -0.1  773  378           
09 11.12.17 тихо ()   20000 м    1/0 верхняя 
[Cs]
-47.1 -50.1 72 -47  1024.3  773  379           
12 11.12.17 тихо ()   20000 м    ясно 
-46.9 -50.1 70 -47  1041.8  -0.4  772  378    -46.2       
15 11.12.17 тихо ()   20000 м  слаб. снег  10/0 верхняя 
[Cs]
-45 -48.5 68 -45  1040.2  -1.6  771  374           
18 11.12.17 тихо ()   20000 м  слаб. снег  10/0 верхняя 
[Cs]
-40.5 -43.8 71 -41  1038.6  -1.3  770  367           
21 11.12.17 тихо ()   20000 м  слаб. снег  10/0 средняя 
[As op]
-37 -40.4 70 -37  1036.6  -1.8  769  360           
00 12.12.17 010 (С) 20000 м  слаб. снег  10/0 средняя, верхняя 
[As trans|Cs]
-33.1 -36.7 70 -34  1036.1  -0.5  769  354  -47.1    0.3  24  равномерный
сухой снег
100% 
03 12.12.17 010 (С) 20000 м  {снег}  10/6 600 м средняя 
[Sc|As op]
-30.6 -34.3 70 -34  1034.6  -1.3  768  350           
06 12.12.17 280 (З) 20000 м  {снег}  10/5 600 м средняя 
[Sc|As op]
-28.8 -32.5 70 -34  1033.9  -0.7  767  347           
12 12.12.17 130 (ЮВ) 20000 м  слаб. снег  10/0 верхняя 
[Cs]
-32 -35.7 70 -36  1032.6  0.3  766  352    -27.8  0.2     
15 12.12.17 030 (СВ) 20000 м  слаб. снег  10/0 верхняя 
[Cs]
-33.8 -35.7 83 -40  1032.4  -0.4  766  354           
18 12.12.17 030 (СВ) 20000 м  {снег}  ясно 
-35.3 -39.7 64 -42  1032.5  0.1  766  356           
21 12.12.17 040 (СВ) 20000 м  слаб. снег  10/0 верхняя 
[Cs]
-35.8 -40 65 -42  1031.2  -1.2  765  357           
00 13.12.17 040 (СВ) 20000 м  {снег}  4/0 верхняя 
[Cs]
-35.9 -40 66 -42  1031.4  0.1  765  357  -35.9    0.2  24  равномерный
сухой снег
100% 
03 13.12.17 040 (СВ) 20000 м    8/0 средняя, верхняя 
[As trans|Cs]
-37.5 -41.8 64 -42  1021.6  765  359  -37.5         
06 13.12.17 040 (СВ) 20000 м    8/0 средняя 
[Ac As]
-35.3 -39 69 -40  1030.8  -0.5  765  356           
09 13.12.17 040 (СВ) 20000 м  слаб. снег  10/0 средняя, верхняя 
[As trans|Cs]
-35.5 -39 70 -40  1031.1  0.3  765  356           
12 13.12.17 040 (СВ) 20000 м  слаб. снег  10/0 верхняя 
[Cs]
-36.4 -40 69 -41  1031.1  765  358    -34.9  0.2     
15 13.12.17 010 (С) 20000 м  слаб. снег  10/0 верхняя 
[Cs]
-37 -40.4 70 -38  1030.8  -0.3  765  358           
18 13.12.17 010 (С) 20000 м  {снег}  ясно 
-39.5 -42.9 70 -41  1032.2  1.1  765  363           
21 13.12.17 тихо ()   20000 м    ясно 
-41.4 -44.9 69 -41  1033.4  1.2  766  366           
00 14.12.17 тихо ()   20000 м    ясно 
-42.7 -46.1 69 -43  1033.9  0.2  767  368  -42.7    0.2  24  равномерный
сухой снег
100% 
Время (UTC), дата Ветер
(°,м/с) 
Видим.   Явления Облачность Т
(°С)
Тd
(°С)
f(%) Тe
(°С)
Pmin
(гПа)
dP
(гПа)
Po
(мм)
O2
(г/м3)
Тmin Tmax R s Состояние
почвы

Для получения пояснительной информации подведите курсор к названию столбца.

ПОГОДА в Сухане - архив

Всё, что Вы хотите узнать о погоде в Сухане - удобно и подробно!

Выберите нужную дату (начиная с 1 января 2015* года) и нажмите кнопку "Найти".
Будут отображены архивные сводки погоды по пункту Сухана, начиная с указанной даты.


Отображать данные в формате CSV (для использования в таблицах Excel)


Внимание! Наш архив погоды предназначен исключительно для личного некоммерческого использования в познавательных целях. Если Вам необходимы официальные справки о состоянии погоды (для производственных, юридических, коммерческих и т.п. целей), обращайтесь в органы Росгидромета.

*Примечание: данная дата относится к архиву по метеостанциям СССР (Россия, СНГ, Балтия).
Архив по метеостанциям Зарубежной Европы и Азии (кроме Китая) хранится 10 дней, по другим регионам земного шара (Китай, Африка, Америка, Австралия, Океания) - 1 день.

Сухана - район местоположения метеостанции


Название, широта, долгота, высота метеостанции:
Сухана 68.62°ш. 118.33°д. 77 м над ур. моря [Российская Федерация]

Дополнительная информация

В oтличие oт бoльшинства пoгoдных сайтoв мы публикуем пoдрoбную метеoинфoрмацию в детальнoм прoфессиoнальнoм фoрмате.

Характеристики температуры и влажнoсти вoздуха измеряются на высoте 2 м в тени вдали oт зданий и деревьев.
Скoрoсть ветра измеряется на высoте 10 м (на урoвне рoста челoвека скoрoсть ветра ниже в 1.5-2 раза). Если метеoстанция нахoдится в гoрoде или в лесу, тo скoрoсть ветра занижена на 2-4 м/с пo сравнению с oткрытым местoм. Скoрoсть ветра над акватoриями крупных рек и oзёр, а также на вершинах хoлмoв на 2-5 м/с выше, чем в oбычных услoвиях.
Атмoсфернoе давление в разных тoчках местнoсти мoжет значительнo oтличаться oт давления на метеoстанции, в зависимoсти oт услoвий рельефа (при пoдъёме на 10 м давление пoнижается примернo на 1 мм рт.ст.).